Regional Weather Roundup
Issued by NWS Pendleton, OR

Home | Current Version | Previous Version | Text Only | Print | Product List | Glossary On
Versions: 1 2 3 4 5 6 7 8 9 10 11 12 13 14 15 16 17 18 19 20 21 22 23 24 25 26 27 28 29 30 31 32 33 34 35 36 37 38 39 40 41 42 43 44 45 46 47 48 49 50
955
ASUS46 KPDT 182210
RWRPDT
PENDLETON REGIONAL WEATHER ROUNDUP
NATIONAL WEATHER SERVICE PENDLETON OREGON
200 PM PST SAT NOV 18 2017

NOTE: FAIR INDICATES FEW OR NO CLOUDS BELOW 12,000 FEET WITH NO
SIGNIFICANT WEATHER AND/OR OBSTRUCTIONS TO VISIBILITY.

# INDICATES UNOFFICIAL STATION AND DATA

WAZ520-182310-
EAST SLOPES OF WASHINGTON CASCADES

CITY            SKY/WX      TMP DP  RH  WIND    PRES   REMARKS
#BULLFROG       N/A         43  34  70  CALM    N/A
#CLE ELUM HS    N/A         43  32  65  CALM    30.12F
#CLE ELUM LAKE  N/A         40  38  92  CALM    30.11F
#EASTON DOT     N/A         36  35  96  CALM    N/A
#ELK HTS DOT    N/A         43  43  100 NE1     N/A
#GLENWOOD       N/A         47  33  58  CALM    30.23F
#NELSON 3SW     N/A         32  30  92  CALM    30.43F
#NILE           N/A         37  32  82  CALM    29.48F
#TEANAWAY 4NE   N/A         45  36  70  CALM    N/A
#TROUT LAKE 1NE N/A         45  34  65  CALM    30.24F
#TROUT LAKE 1E  N/A         41  35  79  CALM    30.22F
$$

WAZ521-182310-
SIMCOE HIGHLANDS

CITY            SKY/WX      TMP DP  RH  WIND    PRES   REMARKS
#BICKLETON HS   N/A         N/A N/A N/A CALM    30.18F
#CENTERVILLE 1SWN/A         44  31  60  CALM    30.19F
#GOLDENDALE 1NE N/A         50  22  33  SE3     N/A
#GOLDENDALE 4W  N/A         48  19  31  CALM    30.21F
#GOODNOE HILLS  N/A         50  37  61  SW3     N/A
#LYLE 6NE       N/A         46  37  71  CALM    30.24F
#PITT 4SE       N/A         42  32  67  CALM    30.27F
$$

WAZ026-182310-
KITTITAS VALLEY

CITY            SKY/WX      TMP DP  RH  WIND    PRES   REMARKS
ELLENSBURG AP   PTCLDY      47  32  56  SE6     30.17F
#ELLENSBURG CWU N/A         47  33  58  SE5     30.16F
#ELLENSBURG 3NE N/A         44  34  68  SE2     28.24F
#ELLENSBURG 1E  N/A         46  33  60  CALM    30.27F
#KITTITAS 3S    N/A         47  35  63  W1      30.21F
#MANASTASH RDG  N/A         41  41  100 SE9     N/A
#RYEGRASS DOT   N/A         44  26  49  S6      N/A
$$

WAZ027-182310-
YAKIMA VALLEY

CITY            SKY/WX      TMP DP  RH  WIND    PRES   REMARKS
SUNNYSIDE AP    PTCLDY      49  35  58  CALM    30.22F
YAKIMA AIRPORT  PTCLDY      52  33  48  SE8     30.20F
YAKIMA-VAGABOND SUNNY       48  31  51  SW7     30.17F
#DONALD 2NE     N/A         56   6  13  S2      29.04F
#GRANDVIEW      N/A         51  32  48  E1      30.16F
#MABTON         N/A         48  40  74  CALM    30.22F
#MOXEE 2E       N/A         30  N/A N/A CALM    30.29S
#NACHES 2SW     N/A         45  34  65  E1      30.19F
#OUTLOOK DOT    N/A         51  34  52  CALM    N/A
#PARKER DOT     N/A         49  32  52  NW1     30.20F
#TERRACE HTS    N/A         49  35  58  S1      30.19F
#TOPPENISH      N/A         48  34  58  CALM    30.15F
#I82 S UMTANUM RN/A         45  27  49  S2      N/A
#UNION GAP DOT  N/A         50  33  52  E1      30.24F
#W YAKIMA       N/A         47  33  58  E7      30.22F
#WHITE SWAN 5E  N/A         48  36  63  CALM    30.23F
#WILEY CITY 3W  N/A         47  31  53  E2      30.15F
#ZILLAH DOT     N/A         49  33  54  CALM    N/A
$$

WAZ028-182310-
LOWER COLUMBIA BASIN...WASHINGTON

CITY            SKY/WX      TMP DP  RH  WIND    PRES   REMARKS
PASCO           PTCLDY      53  31  43  CALM    30.23F
PROSSER AWOS    N/A         50  34  54  VRB3    30.24F
RICHLAND AWOS   PTCLDY      54  34  47  CALM    30.23F
#BENTON CITY    N/A         51  33  50  CALM    30.15F
#CONNELL 5N     N/A         51  35  54  SW5     30.25F
#CONNELL 5NW    N/A         50  34  54  S3      30.21F
#ELTOPIA 6NW    N/A         50  37  61  CALM    29.18F
#KAHLOTUS       N/A         50  32  50  CALM    30.24F
#PATERSON       N/A         49  37  63  CALM    30.22F
#PROSSER DOT    N/A         51  34  52  CALM    30.23F
#SAGEMOOR 2W    N/A         50  37  61  CALM    30.11F
#TOUCHET 2S     N/A         52  32  46  CALM    30.21F
#WEST PASCO     N/A         46  33  60  CALM    29.84S
$$

WAZ029-182310-
FOOTHILLS OF THE BLUES...WASHINGTON

CITY            SKY/WX      TMP DP  RH  WIND    PRES   REMARKS
WALLA WALLA AP  PTCLDY      53  34  48  N7      30.20F
#CLYDE 6NW      N/A         50  31  48  CALM    30.24F
#DAYTON SCHOOL  N/A         52  23  32  E1      30.19F
#DELANEY DOT    N/A         53  32  45  N2      30.26F
#LOWDEN 2SE     N/A         53  36  52  W2      30.18F
#PLEASANT VIEW 1N/A         49  32  52  NE1     30.29F
#PRESCOTT       N/A         56  29  35  CALM    30.22F
#WHITMAN COLLEGEN/A         53  33  46  N3      30.19F
#WAITSBURG 5S   N/A         50  34  54  N2      30.32F
#WAITSBURG 6SSE N/A         51  30  44  NW3     30.20F
#WAITSBURG 8N   N/A         54  N/A N/A N3      30.21F
#WALLA WALLA 5E N/A         53  33  46  N2      N/A
#WHITMAN MISSIONN/A         54  34  47  CALM    30.24F
$$

WAZ030-182310-
BLUE MOUNTAINS...WASHINGTON

CITY            SKY/WX      TMP DP  RH  WIND    PRES   REMARKS
#DIXIE 5SE      N/A         46  24  42  E7      30.10F
$$

ORZ009-041-WAZ024-182310-
COLUMBIA RIVER GORGE

CITY            SKY/WX      TMP DP  RH  WIND    PRES   REMARKS
HOOD RIVER AP   PTCLDY      45  36  70  SE3     30.24F
THE DALLES AP   PTCLDY      52  34  50  NE8     30.22F
#ARLINGTON AIRPON/A         47  38  71  E3      30.24F
#ARLINGTON HS   N/A         46  38  73  NW2     30.15F
#CELILO DOT     N/A         46  34  63  CALM    N/A
#LYLE           N/A         49  39  68  NW10    30.24F
#MARYHILL       N/A         51  36  56  N1      N/A
#MURDOCK        N/A         48  39  71  N5      30.19F
#RUFUS DOT      N/A         49  N/A N/A CALM    N/A
#SMITHVILLE     N/A         51  37  59  N6      30.18F

$$

ORZ510-182310-
NORTH CENTRAL OREGON

CITY            SKY/WX      TMP DP  RH  WIND    PRES   REMARKS
#ANTELOPE       N/A         46  28  49  CALM    30.14F
#CHENOWITH 1W   N/A         44  32  62  E6      N/A
#COW CYN RST AREN/A         45  N/A N/A CALM    N/A
#DUFUR          N/A         47  30  51  E2      30.20F
#DUFUR 9E       N/A         43  32  65  CALM    30.28F
#GRASS VALLEY 1SN/A         43  31  62  NW1     30.17F
#KENT DOT       N/A         46  17  31  SE3     N/A
#MAUPIN SCHOOL  N/A         45  30  55  W1      30.24F
#MORO SCHOOL    N/A         48  36  63  CALM    30.17F
#SHANIKO 5WSW   N/A         42  N/A N/A SE5     N/A
#SHANIKO 4NW    N/A         42  24  48  S2      30.15F
#TYGH VALLEY 2NEN/A         44  30  58  CALM    30.23F
#WAPANITIA AIRPON/A         43  29  57  E1      30.26F
#WASCO 5NE      N/A         46  33  60  CALM    30.23F
$$

ORZ511-182310-
CENTRAL OREGON

CITY            SKY/WX      TMP DP  RH  WIND    PRES   REMARKS
BEND AIRPORT    PTCLDY      48  23  37  S8      30.16F
PRINEVILLE AP   PTCLDY      48  21  34  SE10    30.16F
REDMOND AIRPORT PTCLDY      50  21  32  SE8     30.14F
#ASHWOOD SCHOOL N/A         46  29  51  N3      30.11F
#BEND 1SW       N/A         42  27  55  SW1     N/A
#BEND-AWBREY    N/A         44  27  51  SW5     30.23F
#BEND-KIM LN    N/A         43  27  53  W2      30.20F
#CULVER         N/A         48  24  39  S1      30.08F
#CULVER 8W      N/A         50  17  27  CALM    30.14F
#LAKE BILLY CHINN/A         46  N/A N/A NW5     30.19F
#MADRAS 4S      N/A         49  10  20  S16     N/A    WCI 43
#POWELL BUTTE   N/A         47  20  34  E5      30.08F
#PRINEVILLE     N/A         48  25  40  E3      30.33F
#PRINEVILLE 3N  N/A         48  26  42  E15     30.25F WCI 42
#WARM SPRINGS   N/A         45  31  58  CALM    30.07F

$$


ORZ509-182310-
EAST SLOPES OF OREGON CASCADES

CITY            SKY/WX      TMP DP  RH  WIND    PRES   REMARKS
#CAMP SHERMAN   N/A         43  27  53  CALM    30.28F
#LA PINE DOT    N/A         42  12  29  S8      N/A
#LA PINE 4NW    N/A         41  25  53  CALM    30.34F
#LAVA BUTTE DOT N/A         41  18  39  S2      N/A
#SISTERS ODOT   N/A         42  23  46  W1      N/A
#SISTERS 3N     N/A         43  25  49  CALM    30.14F
#SUNRIVER       N/A         43  26  51  SE3     30.28F
#TUMALO 3W      N/A         43  26  51  NW3     30.11F
#WANOGA BUTTE D N/A         31  22  69  W8      N/A

$$

ORZ044-182310-
LOWER COLUMBIA BASIN...OREGON

CITY            SKY/WX      TMP DP  RH  WIND    PRES   REMARKS
HERMISTON       SUNNY       50  33  52  NW5     30.21F
#BOARDMAN SCHOOLN/A         45  38  76  NW1     30.23F
#BOARDMAN 8SW   N/A         48  39  71  N1      30.23F
#ECHO 8SW       N/A         49  33  54  CALM    30.22F
#I-84 EX 198 DOTN/A         49  33  54  E7      N/A
#IONE SCHOOL    N/A         47  33  58  N2      30.25F
#UMATILLA       N/A         51  31  46  CALM    30.17F
$$

ORZ507-182310-
NORTHERN FOOTHILLS OF THE BLUES

CITY            SKY/WX      TMP DP  RH  WIND    PRES   REMARKS
PENDLETON AIRPT PTCLDY      53  25  33  N3      30.18F
#ADAMS 3WNW     N/A         53  30  41  SE2     30.21F
#ATHENA         N/A         53  28  38  SE2     30.25F
#CAYUSE         N/A         54  30  40  S1      30.21F
#HELIX SCHOOL   N/A         53  31  43  N6      30.23F
#HELIX 3N       N/A         50  28  42  S3      30.15F
#HOLDMAN 5SE    N/A         52  31  44  CALM    30.17F
#HOLDMAN 6E     N/A         51  30  44  CALM    30.03F
#M-F GROVE ELEM N/A         51  31  46  N1      30.17F
#M-FREEWATER 5SEN/A         55  32  41  CALM    30.18F
#PENDLETON DNTN N/A         58  33  39  CALM    30.16F
#PDT AQUATIC CTRN/A         57  34  42  NW3     29.96F
#PDT SUNRIDGE   N/A         53  29  39  NW1     30.21F
#PENDLETON 6SE  N/A         55  31  40  N2      30.18F
#PENDLETON 7NW  N/A         53  36  52  CALM    31.55S
#PILOT ROCK 1S  N/A         50  29  44  CALM    30.19F
#PILOT ROCK     N/A         48  32  54  CALM    30.19F
#TUTUILLA       N/A         53  30  41  CALM    30.25F
#UMAPINE 2E     N/A         52  38  59  CALM    30.18F

$$

ORZ508-182310-
SOUTHERN FOOTHILLS OF THE BLUES

CITY            SKY/WX      TMP DP  RH  WIND    PRES   REMARKS
LEXINGTON       SUNNY       46  32  58  N14     30.21F WCI 40
#AJAX           N/A         42  26  53  NW2     30.32F
#CONDON 5W      N/A         44  22  41  SE7     30.13F
#HEPPNER EOC    N/A         53  25  33  SE2     30.14F
#HEPPNER 4NE    N/A         44  30  58  N3      30.22F
#LEXINGTON 2SE  N/A         50  33  52  N7      30.15F
#MIKKALO        N/A         46  29  51  N1      30.29F
#OLEX 4N        N/A         45  36  70  NE1     30.19F
#RUGGS 5NE      N/A         52  24  33  S6      30.33S
#RUGGS 2SW      N/A         49  23  36  S10     30.24F

$$

ORZ502-503-182310-
BLUE MOUNTAINS

CITY            SKY/WX      TMP DP  RH  WIND    PRES   REMARKS
MEACHAM         SUNNY       42  24  48  VRB5    30.17F
#BATTLE MTN DOT N/A         42  18  38  S8      N/A
#GRANITE        N/A         40  18  41  SW5     30.24S
#GREENHORN 9SW  N/A         43  24  47  E7      30.17F
#LADD CREEK ODOTN/A         44  23  43  SW8     N/A
#LONG CREEK HS  N/A         47  22  37  SW3     30.17F
#N POWDER DOT   N/A         43  21  41  SE22    N/A    WCI 34
#PIKES PEAK     N/A         45  23  41  CALM    27.99S
#TOLLGATE       N/A         34  25  69  E3      30.00F
#TROY SCHOOL    N/A         45  33  63  CALM    30.12F
#UKIAH          N/A         48  27  44  S2      30.21F
#WESTON 4E      N/A         44  26  49  E9      30.22F
$$

ORZ505-182310-
JOHN DAY BASIN

CITY            SKY/WX      TMP DP  RH  WIND    PRES   REMARKS
JOHN DAY        PTCLDY      47  22  37  NE3     30.20F
#ANTELOPE 9ESE  N/A         50  28  42  E1      N/A
#DAYVILLE SCHOOLN/A         49  23  36  E5      30.14F
#MITCHELL 8NW   N/A         45  23  41  NE2     30.28F
#MONUMENT HS    N/A         48  26  42  CALM    30.15F
#MT. VERNON 5SE N/A         43  21  41  E9      30.14F
#WINLOCK        N/A         47  23  38  N8      30.11F
$$

ORZ506-182310-
OCHOCO AND JOHN DAY HIGHLANDS

CITY            SKY/WX      TMP DP  RH  WIND    PRES   REMARKS
#HORSE RIDGE DO N/A         45  17  32  S14     N/A    WCI 39
#IZEE 6NW       N/A         42  21  43  S3      N/A
#PAULINA ODOT   N/A         44  21  40  NE3     N/A
#PINE MTN OBS   N/A         33  21  61  S15     N/A    WCI 23
#SENECA         N/A         38  N/A N/A N5      N/A
#SENECA 9NW     N/A         39  22  50  CALM    30.37F
$$

ORZ049-182310-
GRANDE RONDE VALLEY

CITY            SKY/WX      TMP DP  RH  WIND    PRES   REMARKS
LA GRANDE       PTCLDY      46  22  38  SE24G31 30.23F WCI 38
#COVE SCHOOL    N/A         46  25  43  CALM    30.22F
#COVE 6NW       N/A         47  25  42  SE7     30.30F
#ELGIN 3N       N/A         46  19  34  S16     30.17F WCI 39
#ELGIN 1E       N/A         48  25  40  S3      N/A
#IMBLER SCHOOL  N/A         45  23  41  S22G31  30.17F WCI 37
#ISLAND CITY 4N N/A         48  45  89  CALM    30.22F
#LADD CYN DOT   N/A         45  26  47  S13G28  N/A    WCI 39
#UNION 1S       N/A         47  26  44  E18G35  30.31F WCI 40
$$

ORZ050-182310-
WALLOWA COUNTY

CITY            SKY/WX      TMP DP  RH  WIND    PRES   REMARKS
JOSEPH AIRPORT  PTCLDY      41  18  39  CALM    30.21F
#ENTERPRISE HS  N/A         43  26  51  CALM    30.20F
#IMNAHA SCHOOL  N/A         51  24  34  N13     30.22F
#IMNAHA 10S     N/A         46  24  42  W13G26  30.21F WCI 40
#JOSEPH         N/A         41  16  36  W3      30.59F
#JOSEPH 3N      N/A         40  22  48  W1      30.21F
#JOSEPH 3W      N/A         N/A N/A N/A CALM    30.60F
#LOSTINE        N/A         43  25  49  CALM    30.11F
#LOSTINE 3SE    N/A         42  22  45  E2      30.27F
#MT HOWARD 8000 N/A         32  10  39  SW7     30.12F
#PROMISE 1S     N/A         40  26  57  CALM    30.35F
#WALLOWA SCHOOL N/A         44  23  43  CALM    30.18F



$$



USA.gov is the U.S. government's official web portal to all federal, state and local government web resources and services.